Location: ?nandapuram
(16.5396°N, 81.1430°E)
Time: 23:09:05
(UTC+00:00)

Cosmos 1461 - Pass Details

Date: 14 April 2026
Orbit: 423 x 482 km, 65.0° (Epoch: 9 May)

Event Time Altitude Azimuth Distance (km) Brightness Sun altitude
Exits shadow 22:13:47 18° 99° (E) 1,222 5.1 -30.0°
Drops below altitude 10° 22:15:56 10° 63° (ENE) 1,658 6.2 -29.5°
Enters shadow 23:15:55 -62° 205° (SSW) 11,696 9.5 -15.9°
Sets 23:54:28 0° 358° (N) 2,543 6.4 -6.9°
